SL-3 R/B

Last updated on Thu Nov 21 2024 00:02:12 GMT+0000 (Coordinated Universal Time)

1 19046U 88032B 24325.57711775 .00008462 00000+0 47668-3 0 9990 2 19046 97.4673 303.5129 0032338 80.4241 280.0642 15.13003786980237
UTC large
Height (km)
Speed (km/s)
/
Latitude / Longitude
Inclination (degrees)
Orbital Period (minutes)
Azimuth
Elevation
Range (km)
Doppler Factor

Next 0 passes for location: London (51.5072 / 0.1276)

Sorry there are no passes over London.